CDT,Max TemperatureF,Mean TemperatureF,Min TemperatureF,Max Dew PointF,MeanDew PointF,Min DewpointF,Max Humidity, Mean Humidity, Min Humidity, Max Sea Level PressureIn, Mean Sea Level PressureIn, Min Sea Level PressureIn, Max VisibilityMiles, Mean VisibilityMiles, Min VisibilityMiles, Max Wind SpeedMPH, Mean Wind SpeedMPH, Max Gust SpeedMPH,PrecipitationIn, CloudCover, Events, WindDirDegrees
2013-6-1,68,60,51,61,54,45,94,84,73,29.93,29.70,29.58,10,10,7,17,6,26,0.16,6,Rain,267
2013-6-2,64,56,48,48,44,43,100,69,48,30.08,30.03,29.95,10,10,10,16,8,23,0.00,3,,339
2013-6-3,69,56,42,48,46,43,100,66,40,30.08,30.04,29.93,10,10,7,14,3,17,0.00,1,,114
2013-6-4,62,58,53,55,52,48,100,82,59,30.09,30.05,30.00,10,10,7,17,10,25,0.03,6,Rain-Thunderstorm,124
2013-6-5,66,60,53,57,55,52,100,91,68,30.05,29.99,29.93,10,7,2,13,5,18,0.01,8,Rain,100
2013-6-6,55,53,51,55,53,52,100,98,94,30.03,29.99,29.96,10,7,1,9,5,,0.00,8,Rain,350
2013-6-7,64,58,51,55,53,50,100,85,63,30.06,30.00,29.93,10,8,3,9,2,16,0.00,7,,336
2013-6-8,68,60,51,57,54,52,100,79,60,29.93,29.92,29.89,10,9,4,12,3,18,0.03,2,Rain,130
2013-6-9,69,62,55,64,59,54,100,92,78,29.91,29.80,29.75,10,9,0,18,11,28,0.26,7,Fog-Rain,88
2013-6-10,73,64,55,64,60,55,100,92,69,29.88,29.85,29.81,10,5,0,9,2,,0.00,5,Fog,232
2013-6-11,80,66,53,70,64,54,100,86,61,29.91,29.87,29.82,10,8,0,10,2,,0.00,0,Fog-Rain-Thunderstorm,39
2013-6-12,75,70,64,68,64,57,100,90,73,29.92,29.83,29.75,10,9,4,15,7,23,0.07,4,Rain-Thunderstorm,22
2013-6-13,77,67,57,57,55,52,88,67,47,30.11,30.05,29.93,10,10,10,13,7,18,0.00,0,,348
2013-6-14,78,66,55,63,59,54,100,72,57,30.09,30.01,29.88,10,10,7,21,8,26,0.03,2,Rain-Thunderstorm,130
2013-6-15,77,68,60,68,65,61,100,88,61,29.95,29.90,29.85,10,10,0,18,8,24,0.06,3,Fog-Rain-Thunderstorm,188
2013-6-16,84,68,53,61,56,52,100,66,33,29.96,29.93,29.88,10,8,0,22,3,33,0.00,1,Fog,259
2013-6-17,80,70,60,61,56,54,83,61,39,30.00,29.94,29.90,10,10,10,16,5,23,0.00,1,,285
2013-6-18,75,66,57,61,57,54,94,76,53,30.41,30.06,30.01,10,10,7,9,5,17,0.00,3,Thunderstorm,41
2013-6-19,84,72,59,64,59,55,88,65,40,30.08,30.03,29.96,10,10,10,13,7,18,0.00,1,,143
2013-6-20,87,78,69,66,63,61,78,59,43,30.03,29.98,29.90,10,10,10,20,10,28,0.00,2,,159
2013-6-21,80,71,62,72,67,61,100,85,61,30.04,29.92,29.82,10,10,2,28,10,40,0.89,4,Rain-Thunderstorm,120
2013-6-22,82,72,62,75,69,63,100,91,73,30.05,29.91,29.85,10,10,3,17,8,28,2.15,3,Rain-Thunderstorm,43
2013-6-23,80,73,66,72,69,66,100,85,61,29.92,29.82,29.72,10,10,5,24,12,34,0.00,2,Thunderstorm,176
2013-6-24,78,70,62,72,67,63,100,90,74,29.93,29.89,29.82,10,9,2,13,3,22,0.02,2,Rain-Thunderstorm,152
2013-6-25,84,74,64,75,70,64,100,87,70,29.85,29.79,29.73,10,10,7,12,8,22,0.06,2,Rain-Thunderstorm,130
2013-6-26,86,78,69,77,71,64,100,85,58,29.85,29.74,29.69,10,8,2,16,5,22,0.11,1,Rain-Thunderstorm,241
2013-6-27,84,75,66,68,63,57,100,68,40,29.87,29.84,29.82,10,10,10,21,6,31,0.00,1,,270
2013-6-28,77,70,64,64,61,57,94,72,61,29.84,29.81,29.78,10,10,7,23,11,31,0.15,3,Rain-Thunderstorm,298
2013-6-29,73,66,60,64,60,55,100,81,57,29.98,29.86,29.76,10,10,4,16,8,23,0.31,4,Rain-Thunderstorm,354
2013-6-30,78,66,53,61,54,50,100,70,41,30.13,30.07,29.98,10,10,10,12,5,20,0.00,0,,4